Location: Mactaquac Provincial Park
(45.9573°N, 66.8897°W)
Time: 10:40:14
(UTC-03:00)

CENTAUR R/B - Visible Passes

Search period start: 25 March 2017 00:00
Search period end: 04 April 2017 00:00
Orbit: 838 x 1351 km, 63.5° (Epoch: 22 March)

Date Brightness Start Highest point End Pass type
(mag) Time Alt. Az. Time Alt. Az. Time Alt. Az.
25 Mar 4.0 02:56:10 29° ENE 02:56:10 29° ENE 03:00:00 10° NE visible
25 Mar 2.9 04:43:20 47° WNW 04:44:17 50° NW 04:51:12 10° NE visible
25 Mar 4.4 06:31:41 10° WNW 06:36:48 22° NNW 06:42:24 10° NE visible
26 Mar 4.7 02:09:21 16° ENE 02:09:21 16° ENE 02:11:05 10° ENE visible
26 Mar 2.7 03:56:31 69° N 03:56:31 69° N 04:02:55 10° NE visible
26 Mar 4.1 05:43:41 15° WNW 05:47:50 26° NNW 05:53:51 10° NNE visible
27 Mar 3.4 03:09:40 47° NE 03:09:40 47° NE 03:14:33 10° NE visible
27 Mar 3.6 04:56:50 28° WNW 04:58:59 34° NNW 05:05:28 10° NNE visible
27 Mar 4.6 06:47:08 10° NW 06:52:04 20° N 06:57:23 10° NE visible
28 Mar 4.2 02:22:48 27° ENE 02:22:48 27° ENE 02:26:04 10° NE visible
28 Mar 3.1 04:09:57 46° NW 04:10:20 46° NW 04:17:10 10° NNE visible
28 Mar 4.5 05:57:53 10° WNW 06:02:58 21° NNW 06:08:29 10° NE visible
29 Mar 4.8 01:35:53 15° ENE 01:35:53 15° ENE 01:37:16 10° ENE visible
29 Mar 3.0 03:23:03 57° N 03:23:03 57° N 03:28:53 10° NE visible
29 Mar 4.2 05:10:13 16° WNW 05:13:57 25° NNW 05:19:52 10° NNE visible
30 Mar 3.6 02:36:07 41° NE 02:36:07 41° NE 02:40:34 10° NE visible
30 Mar 3.8 04:23:16 28° WNW 04:25:05 32° NNW 04:31:26 10° NNE visible
30 Mar 4.7 06:13:18 10° NW 06:18:14 20° N 06:23:34 10° NE visible
31 Mar 4.3 01:49:09 26° ENE 01:49:09 26° ENE 01:52:07 10° NE visible
31 Mar 3.3 03:36:19 42° NW 03:36:22 42° NW 03:43:08 10° NNE visible
31 Mar 4.6 05:24:07 10° WNW 05:29:08 21° N 05:34:35 10° NE visible
01 Apr 4.8 01:02:10 15° ENE 01:02:10 15° ENE 01:03:24 10° NE visible
01 Apr 3.3 02:49:19 50° N 02:49:19 50° N 02:54:52 10° NE visible
01 Apr 4.3 04:36:28 16° WNW 04:40:06 24° NNW 04:45:54 10° NNE visible
01 Apr 4.8 06:28:21 10° NW 06:33:34 21° N 06:39:09 10° NE visible
02 Apr 3.7 02:02:17 39° NE 02:02:17 39° NE 02:06:34 10° NE visible
02 Apr 3.9 03:49:27 26° NW 03:51:11 30° NNW 03:57:27 10° NNE visible
02 Apr 4.8 05:39:28 10° NW 05:44:25 20° N 05:49:45 10° NE visible
03 Apr 4.2 01:15:14 26° NE 01:15:14 26° NE 01:18:08 10° NE visible
03 Apr 3.5 03:02:23 39° NW 03:02:26 39° NW 03:09:07 10° NNE visible
03 Apr 4.7 04:50:19 10° NW 04:55:17 20° N 05:00:41 10° NE visible
